#timestamp,LO_Frequency,Hit,StdDev 
1588514415.6,286047001.0,N
1588514435.4,286047000.5,N
1588514455.3,286047001.0,N
1588514475.1,286046998.1,N
1588514495.9,286046996.9,N
1588514515.7,286046997.9,N
1588514535.5,286046995.1,N
1588514555.4,286046996.0,N
1588514575.2,286046994.8,N
1588514595.0,286046994.1,N
1588514595.9,286046994.1,N
1588514615.8,286046994.1,N
1588514635.6,286046993.8,N
1588514655.5,286046993.3,N
1588514675.3,286046996.3,N
1588514695.1,286046994.3,N
1588514715.9,286046993.4,N
1588514735.7,286046993.9,N
1588514755.5,286046991.8,N
1588514775.4,286046994.6,N
1588514795.2,286046993.9,N
1588514815.1,286046994.1,N
1588514816.0,286046994.1,N
1588514835.8,286046993.9,N
1588514855.6,286046994.2,N
1588514875.5,286046993.5,N
1588514895.3,286046993.9,N
1588514915.1,286046994.0,N
1588514935.9,286046994.2,N
1588514955.7,286046994.3,N
1588514975.6,286046994.0,N
1588514995.4,286046994.2,N
1588515015.2,286046994.5,Y
1588515035.1,286046999.4,P
1588515036.0,286046999.4,N
1588515055.8,286046999.4,N
1588515075.6,286046998.4,N
1588515095.5,286046998.5,N
1588515115.3,286047000.8,N
1588515135.2,286047000.6,N
1588515155.9,286047002.3,N
1588515175.7,286047000.4,N
1588515195.6,286047002.4,N
1588515215.4,286047003.1,N
1588515235.2,286047003.3,N
1588515255.1,286047011.9,Y
1588515256.0,286047005.7,P
1588515275.8,286047005.6,N
1588515295.7,286047006.0,N
1588515315.5,286047003.4,N
1588515335.3,286047005.4,N
1588515355.2,286047005.3,N
1588515375.0,286047003.0,N
1588515375.9,286047003.0,N
1588515395.8,286047005.8,Y
1588515415.6,286047000.7,P
1588515435.4,286046998.6,N
1588515455.3,286046999.0,N
1588515475.1,286046999.3,N
1588515495.8,286046998.4,N
1588515515.7,286046996.8,N
1588515535.5,286046996.9,N
1588515555.4,286046996.9,N
1588515575.2,286046996.8,N
1588515595.0,286046996.7,N
1588515595.9,286046996.7,N
1588515615.8,286046996.7,N
1588515635.6,286046997.2,N
1588515655.4,286046996.5,N
1588515675.3,286046999.5,N
1588515695.1,286046997.8,N
1588515715.9,286046999.4,N
1588515735.7,286046999.1,N
1588515755.5,286046997.0,N
1588515775.4,286046997.6,N
1588515795.2,286046996.6,N
1588515815.0,286046998.2,N
1588515815.9,286046998.2,N
1588515835.8,286046998.8,N
1588515855.6,286046999.3,N
1588515875.5,286046999.5,N
1588515895.3,286046997.7,N
1588515915.1,286046996.1,N
1588515935.9,286046995.8,N
1588515955.7,286046995.3,N
1588515975.5,286046997.7,N
1588515995.4,286046996.1,Y
1588516015.2,286046998.5,P
1588516035.1,286046998.4,P
1588516036.0,286046998.4,P
1588516055.8,286046998.1,Y
1588516075.6,286046999.9,P
1588516095.5,286047002.2,N
1588516115.3,286047002.7,N
1588516135.2,286046996.5,N
1588516155.9,286046998.0,N
1588516175.7,286046996.1,N
1588516195.6,286046995.7,N
1588516215.4,286046996.1,N
1588516235.2,286046996.1,N
1588516255.1,286046996.2,N
1588516256.0,286046996.2,N
1588516275.8,286046996.3,N
1588516295.7,286046995.2,N
1588516315.5,286046996.3,N
1588516335.3,286046994.0,N
1588516355.2,286046996.3,N
1588516375.9,286046995.3,N
1588516395.7,286046995.3,N
1588516415.6,286046997.6,N
1588516435.4,286046997.7,N
1588516455.2,286046997.5,N
1588516475.1,286046997.5,N
1588516476.0,286046997.5,N
1588516495.8,286046995.5,N
1588516515.7,286046994.5,N
1588516535.5,286046994.0,N
1588516555.3,286046991.7,Y
1588516575.2,286046996.0,P
1588516595.0,286046993.5,P
1588516595.9,286046993.5,P
1588516615.8,286046994.1,Y
1588516635.6,286046999.7,P
1588516655.4,286047000.5,N
1588516675.3,286047002.8,N
1588516695.1,286047000.1,N
1588516715.8,286047000.7,N
1588516735.7,286046999.8,N
1588516755.5,286047002.2,N
1588516775.4,286047001.6,N
1588516795.2,286047004.4,N
1588516815.0,286047001.3,N
1588516815.9,286047001.3,N
1588516835.8,286047003.6,N
1588516855.6,286047003.4,N
1588516875.4,286047006.0,N
1588516895.3,286047004.7,N
1588516915.1,286047005.0,N
1588516935.9,286047007.6,N
1588516955.7,286047004.8,N
1588516975.5,286047007.6,N
1588516995.4,286047009.1,Y
1588517015.2,286047003.1,P
1588517035.0,286047004.2,P
1588517036.0,286047004.2,P
1588517055.8,286047005.8,Y
1588517075.6,286047000.1,P
1588517095.5,286047002.6,N
1588517115.3,286047004.4,P
1588517135.1,286047003.5,N
1588517155.9,286047005.7,Y
1588517175.7,286047002.0,P
1588517195.6,286047004.4,P
1588517215.4,286047001.5,N
1588517235.2,286047001.3,N
1588517255.1,286047002.3,N
1588517256.0,286047002.3,N
1588517275.8,286047000.6,N
1588517295.6,286047000.6,N
1588517315.5,286047000.8,N
1588517335.3,286047000.6,N
1588517355.2,286047000.1,N
1588517375.9,286047002.4,N
1588517395.7,286047001.9,N
1588517415.6,286047002.6,N
1588517435.4,286047002.5,N
1588517455.2,286047000.6,N
1588517475.1,286046999.9,N
1588517476.0,286046999.9,N
1588517495.8,286047000.1,N
1588517515.7,286047002.8,N
1588517535.5,286047002.7,N
1588517555.3,286047004.4,Y
1588517575.2,286046999.9,P
1588517595.0,286046998.6,N
1588517595.9,286046998.6,N
1588517615.8,286047000.6,N
1588517635.6,286047000.6,N
1588517655.4,286046999.9,N
1588517675.3,286047002.2,N
1588517695.1,286047001.6,N
1588517715.8,286047002.5,N
1588517735.7,286047001.8,N
1588517755.5,286047004.4,Y
1588517775.4,286047001.8,P
1588517795.2,286047003.7,P
1588517815.0,286047003.9,P
1588517815.9,286047003.9,N
1588517835.8,286047001.7,N
1588517855.6,286047001.6,N
1588517875.5,286047001.0,N
1588517895.3,286046998.1,N
1588517915.1,286046998.9,N
1588517935.9,286046999.7,N
1588517955.7,286047002.4,N
1588517975.5,286047002.6,N
1588517995.4,286047001.7,N
